When you browse on this site, cookies collect data to enhance your experience and personalize the content and advertising you see.
Visit our Privacy Policy to learn more. By continuing to use the site, you agree to this use of cookies and data.
  • în România
  • Lista ţărilor
  • Pe 7 zile
  • Temperatura apei
  • Hartă satelitară
  • Meteo pe hartă
  • Widget-uri
  • user-avatar
    Intrare

    Meteo pe oră la Wasow

    Astăzi, 23 Mai, Joi

    Timp Temperatura Precipitaţii Vânt Presiune Umiditate
    00:00 +12°C° 0.3 mm 5 m/s 735 mmHg 95%
    01:00 +12°C° 0 mm 5 m/s 735 mmHg 95%
    02:00 +12°C° 0.3 mm 5 m/s 735 mmHg 95%
    03:00 +12°C° 0.3 mm 4 m/s 736 mmHg 95%
    04:00 +13°C° 0.3 mm 4 m/s 736 mmHg 95%
    05:00 +13°C° 1.3 mm 4 m/s 736 mmHg 95%
    06:00 +13°C° 1.3 mm 4 m/s 736 mmHg 95%
    07:00 +13°C° 1.3 mm 4 m/s 737 mmHg 95%
    08:00 +13°C° 2.8 mm 4 m/s 737 mmHg 95%
    09:00 +13°C° 2.8 mm 4 m/s 737 mmHg 95%
    10:00 +13°C° 2.8 mm 4 m/s 737 mmHg 94%
    11:00 +14°C° 1.6 mm 5 m/s 738 mmHg 94%
    12:00 +14°C° 1.6 mm 6 m/s 738 mmHg 93%
    13:00 +14°C° 1.6 mm 6 m/s 738 mmHg 92%
    14:00 +13°C° 1.2 mm 6 m/s 738 mmHg 93%
    15:00 +13°C° 1.2 mm 6 m/s 738 mmHg 93%
    16:00 +13°C° 1.2 mm 6 m/s 738 mmHg 93%
    17:00 +11°C° 1.3 mm 6 m/s 738 mmHg 93%
    18:00 +11°C° 1.3 mm 6 m/s 738 mmHg 94%
    19:00 +12°C° 1.3 mm 5 m/s 739 mmHg 94%
    20:00 +12°C° 1.9 mm 5 m/s 739 mmHg 95%
    21:00 +12°C° 1.9 mm 5 m/s 739 mmHg 95%
    22:00 +12°C° 1.9 mm 5 m/s 739 mmHg 95%
    23:00 +12°C° 1.7 mm 4 m/s 739 mmHg 95%

    Mâine, 24 Mai, Vineri

    Timp Temperatura Precipitaţii Vânt Presiune Umiditate
    00:00 +12°C° 1.7 mm 4 m/s 739 mmHg 96%
    01:00 +12°C° 1.7 mm 4 m/s 739 mmHg 96%
    02:00 +12°C° 1 mm 4 m/s 739 mmHg 96%
    03:00 +12°C° 1 mm 4 m/s 739 mmHg 96%
    04:00 +11°C° 1 mm 4 m/s 739 mmHg 96%
    05:00 +11°C° 0.6 mm 3 m/s 739 mmHg 96%
    06:00 +11°C° 0.6 mm 3 m/s 739 mmHg 95%
    07:00 +11°C° 0.6 mm 3 m/s 739 mmHg 95%
    08:00 +11°C° 0.1 mm 3 m/s 739 mmHg 93%
    09:00 +12°C° 0.1 mm 3 m/s 739 mmHg 91%
    10:00 +12°C° 0.1 mm 3 m/s 739 mmHg 90%
    11:00 +13°C° 0 mm 3 m/s 739 mmHg 84%
    12:00 +16°C° 0 mm 3 m/s 739 mmHg 79%
    13:00 +18°C° 0 mm 3 m/s 739 mmHg 73%
    14:00 +18°C° 0 mm 3 m/s 739 mmHg 74%
    15:00 +18°C° 0 mm 3 m/s 738 mmHg 75%
    16:00 +18°C° 0 mm 2 m/s 738 mmHg 76%
    17:00 +18°C° 0 mm 2 m/s 738 mmHg 78%
    18:00 +17°C° 0 mm 2 m/s 738 mmHg 81%
    19:00 +16°C° 0 mm 2 m/s 738 mmHg 83%
    20:00 +15°C° 0 mm 2 m/s 738 mmHg 85%
    21:00 +14°C° 0 mm 2 m/s 738 mmHg 86%
    22:00 +13°C° 0 mm 2 m/s 738 mmHg 87%
    23:00 +12°C° 0 mm 2 m/s 738 mmHg 88%

    Poimâine, 25 Mai, Sâmbătă

    Timp Temperatura Precipitaţii Vânt Presiune Umiditate
    00:00 +12°C° 0 mm 2 m/s 738 mmHg 89%
    01:00 +10°C° 0 mm 2 m/s 738 mmHg 90%
    02:00 +10°C° 0 mm 2 m/s 738 mmHg 90%
    03:00 +10°C° 0 mm 2 m/s 738 mmHg 90%
    04:00 +9°C° 0 mm 2 m/s 738 mmHg 91%
    05:00 +12°C° 0 mm 2 m/s 738 mmHg 87%
    06:00 +14°C° 0 mm 2 m/s 738 mmHg 84%
    07:00 +15°C° 0 mm 2 m/s 739 mmHg 80%
    08:00 +17°C° 0 mm 2 m/s 739 mmHg 74%
    09:00 +18°C° 0 mm 2 m/s 739 mmHg 67%
    10:00 +20°C° 0 mm 2 m/s 739 mmHg 60%
    11:00 +20°C° 0 mm 2 m/s 738 mmHg 58%
    12:00 +21°C° 0 mm 2 m/s 738 mmHg 56%
    13:00 +23°C° 0 mm 2 m/s 738 mmHg 54%
    14:00 +22°C° 0.1 mm 3 m/s 738 mmHg 57%
    15:00 +22°C° 0.1 mm 3 m/s 738 mmHg 60%
    16:00 +22°C° 0.1 mm 3 m/s 737 mmHg 64%
    17:00 +20°C° 0.3 mm 3 m/s 737 mmHg 70%
    18:00 +19°C° 0.3 mm 2 m/s 738 mmHg 77%
    19:00 +17°C° 0.3 mm 2 m/s 738 mmHg 83%
    20:00 +16°C° 0 mm 2 m/s 738 mmHg 85%
    21:00 +15°C° 0 mm 1 m/s 738 mmHg 87%
    22:00 +14°C° 0 mm 1 m/s 738 mmHg 89%
    23:00 +14°C° 0 mm 1 m/s 738 mmHg 89%

    26 Mai, Duminică

    Timp Temperatura Precipitaţii Vânt Presiune Umiditate
    00:00 +13°C° 0 mm 1 m/s 738 mmHg 90%
    01:00 +13°C° 0 mm 1 m/s 738 mmHg 90%
    02:00 +12°C° 0 mm 1 m/s 738 mmHg 91%
    03:00 +12°C° 0 mm 1 m/s 738 mmHg 91%
    04:00 +12°C° 0 mm 1 m/s 738 mmHg 92%
    05:00 +13°C° 0 mm 1 m/s 738 mmHg 89%
    06:00 +15°C° 0 mm 2 m/s 738 mmHg 87%
    07:00 +16°C° 0 mm 2 m/s 738 mmHg 84%
    08:00 +18°C° 0 mm 2 m/s 738 mmHg 80%
    09:00 +19°C° 0 mm 3 m/s 738 mmHg 75%
    10:00 +20°C° 0 mm 3 m/s 738 mmHg 70%
    11:00 +21°C° 0.1 mm 3 m/s 738 mmHg 68%
    12:00 +21°C° 0.1 mm 3 m/s 737 mmHg 67%
    13:00 +22°C° 0.1 mm 4 m/s 737 mmHg 65%
    14:00 +21°C° 0.6 mm 3 m/s 737 mmHg 68%
    15:00 +21°C° 0.6 mm 3 m/s 737 mmHg 71%
    16:00 +21°C° 0.6 mm 3 m/s 737 mmHg 74%
    17:00 +19°C° 0.4 mm 3 m/s 737 mmHg 77%
    18:00 +18°C° 0.4 mm 2 m/s 737 mmHg 80%
    19:00 +17°C° 0.4 mm 2 m/s 737 mmHg 83%
    20:00 +16°C° 0 mm 1 m/s 737 mmHg 84%
    21:00 +15°C° 0 mm 1 m/s 738 mmHg 85%
    22:00 +13°C° 0 mm 0 m/s 738 mmHg 86%
    23:00 +12°C° 0 mm 0 m/s 738 mmHg 87%

    27 Mai, Luni

    Timp Temperatura Precipitaţii Vânt Presiune Umiditate
    00:00 +13°C° 0 mm 1 m/s 738 mmHg 87%
    01:00 +12°C° 0 mm 1 m/s 738 mmHg 88%
    02:00 +12°C° 0 mm 1 m/s 738 mmHg 88%
    03:00 +12°C° 0 mm 1 m/s 738 mmHg 89%
    04:00 +11°C° 0 mm 1 m/s 738 mmHg 89%
    05:00 +13°C° 0 mm 1 m/s 738 mmHg 87%
    06:00 +15°C° 0 mm 1 m/s 738 mmHg 85%
    07:00 +16°C° 0 mm 2 m/s 737 mmHg 83%
    08:00 +18°C° 0 mm 2 m/s 737 mmHg 79%
    09:00 +19°C° 0 mm 2 m/s 737 mmHg 75%
    10:00 +21°C° 0 mm 3 m/s 737 mmHg 72%
    11:00 +21°C° 0.1 mm 3 m/s 737 mmHg 72%
    12:00 +21°C° 0.1 mm 2 m/s 736 mmHg 73%
    13:00 +23°C° 0.1 mm 2 m/s 736 mmHg 73%
    14:00 +21°C° 0.2 mm 2 m/s 735 mmHg 77%
    15:00 +20°C° 0.2 mm 2 m/s 735 mmHg 81%
    16:00 +21°C° 0.2 mm 1 m/s 735 mmHg 86%
    17:00 +20°C° 0.1 mm 1 m/s 734 mmHg 87%
    18:00 +19°C° 0.1 mm 2 m/s 734 mmHg 88%
    19:00 +18°C° 0.1 mm 2 m/s 734 mmHg 89%
    20:00 +17°C° 1 mm 2 m/s 733 mmHg 92%
    21:00 +17°C° 1 mm 2 m/s 733 mmHg 94%
    22:00 +16°C° 1 mm 1 m/s 733 mmHg 96%
    23:00 +16°C° 1 mm 1 m/s 732 mmHg 96%

    28 Mai, Marţi

    Timp Temperatura Precipitaţii Vânt Presiune Umiditate
    00:00 +16°C° 1 mm 1 m/s 732 mmHg 96%
    01:00 +16°C° 1 mm 1 m/s 732 mmHg 96%
    02:00 +16°C° 0.2 mm 1 m/s 731 mmHg 96%
    03:00 +16°C° 0.2 mm 1 m/s 731 mmHg 95%
    04:00 +15°C° 0.2 mm 2 m/s 731 mmHg 95%
    05:00 +17°C° 0 mm 2 m/s 731 mmHg 91%
    06:00 +18°C° 0 mm 2 m/s 731 mmHg 87%
    07:00 +19°C° 0 mm 2 m/s 731 mmHg 83%
    08:00 +20°C° 1.7 mm 2 m/s 731 mmHg 80%
    09:00 +20°C° 1.7 mm 2 m/s 731 mmHg 77%
    10:00 +21°C° 1.7 mm 2 m/s 731 mmHg 73%
    11:00 +21°C° 2.4 mm 3 m/s 731 mmHg 75%
    12:00 +21°C° 2.4 mm 3 m/s 731 mmHg 76%
    13:00 +21°C° 2.4 mm 4 m/s 731 mmHg 78%
    14:00 +21°C° 0.7 mm 4 m/s 731 mmHg 76%
    15:00 +21°C° 0.7 mm 3 m/s 731 mmHg 75%
    16:00 +21°C° 0.7 mm 3 m/s 731 mmHg 74%
    17:00 +20°C° 0.2 mm 2 m/s 731 mmHg 77%
    18:00 +19°C° 0.2 mm 2 m/s 731 mmHg 80%
    19:00 +19°C° 0.2 mm 1 m/s 731 mmHg 84%
    20:00 +18°C° 0 mm 1 m/s 731 mmHg 85%
    21:00 +16°C° 0 mm 1 m/s 731 mmHg 86%
    22:00 +15°C° 0 mm 1 m/s 732 mmHg 88%
    23:00 +15°C° 0 mm 1 m/s 731 mmHg 89%
    Arată mai mult